Location: OLV Amersfoort
(52.1552°N, 5.3872°E)
Time: 23:19:11
(UTC+01:00)

ISS - Visible Passes

Search period start: 25 January 2015 00:00
Search period end: 04 February 2015 00:00
Orbit: 402 x 410 km, 51.6° (Epoch: 25 January)

Date Brightness Start Highest point End Pass type
(mag) Time Alt. Az. Time Alt. Az. Time Alt. Az.
25 Jan -0.5 05:34:02 15° SE 05:34:02 15° SE 05:34:41 10° SE visible
25 Jan -0.9 07:06:44 11° SW 07:07:27 11° SW 07:08:27 10° SSW visible
26 Jan -0.9 06:17:15 14° S 06:17:15 14° S 06:18:09 10° S visible
